Location: Ajisawe
(8.4333°N, 4.3833°E)
Time: 12:24:48
(UTC+00:00)

Courier 1B Rocket - Pass Details

Date: 02 May 2021
Orbit: 920 x 1202 km, 28.2° (Epoch: 07 May)

Event Time Altitude Azimuth Distance (km) Brightness Sun altitude
Rises 10:22:00 0° 230° (SW) 3,912 8.0 69.8°
Reaches altitude 10° 10:24:56 10° 225° (SW) 2,911 7.4 70.5°
Maximum altitude 10:31:47 53° 150° (SSE) 1,241 6.6 72.0°
Drops below altitude 10° 10:38:11 10° 75° (ENE) 2,712 7.7 73.4°
Sets 10:40:49 0° 70° (ENE) 3,626 8.2 74.0°
